[[{"header":{"parameterUnit":"m.s-1","parameterCategory":1,"la1":30.2992,"la2":30.254,"lo1":-89.0895,"lo2":-89.0443,"dy":0.0025,"dx":0.0025,"nx":19,"ny":19,"refTime":"2026-04-08T03:00:00:Z","depth":0,"parameterNumber":2,"parameterNumberName":"U-component_of_WINDS"},"data":[0,0,0,-8.3687,-8.3692,-8.3884,-8.3884,-8.4184,-8.4187,0,0,0,0,0,0,0,0,0,0,0,-8.3665,-8.3669,-8.3687,-8.3693,-8.3884,-8.3884,-8.4183,-8.4187,0,0,0,0,0,0,0,0,0,0,0,-8.3664,-8.3668,-8.3672,-8.3694,-8.3884,-8.3884,-8.4182,-8.4018,0,0,0,0,0,0,0,0,0,0,-8.3823,-8.3837,-8.3667,-8.3672,-8.3695,-8.3883,-8.3884,-8.4009,-8.4028,-8.4121,0,-8.4213,0,-8.4205,-8.421,-8.4212,0,0,0,-8.3667,-8.3821,-8.3841,-8.3672,-8.3697,-8.3883,-8.379,-8.4019,-8.4041,-8.4147,-8.4217,-8.4227,-8.421,-8.4213,-8.4214,-8.4836,-8.484,0,0,-8.3656,-8.3718,-8.3827,-8.3857,-8.3833,-8.3784,-8.3796,-8.4032,-8.4112,-8.4218,-8.4233,-8.4215,-8.4215,-8.4218,-8.4832,-8.4837,0,0,0,-8.3643,-8.3712,-8.3725,-8.3847,-8.3877,-8.379,-8.3804,-8.4102,-8.4101,-8.4236,-8.4219,-8.4217,-8.4221,-8.4827,-8.4834,-8.5096,0,0,0,-8.3636,-8.3704,-8.3722,-8.3762,-8.3874,-8.3992,-8.3871,-8.4085,-8.4109,-8.4217,-8.4217,-8.4225,-8.4823,-8.4831,-8.5079,-8.521,0,0,0,-8.3641,-8.3704,-8.3744,-8.3765,-8.3849,-8.3987,-8.3998,-8.4088,-8.4101,-8.4212,-8.4226,-8.4819,-8.4829,-8.5064,-8.5185,-8.539,0,0,0,-8.3664,-8.3976,-8.375,-8.4091,-8.3848,-8.4149,-8.3996,-8.4217,-8.4344,-8.4219,-8.4823,-8.4833,-8.5059,-8.5169,-8.5374,-8.5573,-8.5662,0,0,-8.4092,-8.403,-8.4226,-8.4028,-8.4385,-8.4115,-8.4509,-8.4567,-8.4521,-8.4733,-8.4747,-8.5085,-8.5183,-8.5387,-8.6143,-8.6214,0,0,0,-8.4382,-8.4524,-8.4605,-8.4729,-8.4781,-8.4835,-8.4825,-8.4846,-8.5023,-8.4643,-8.5213,-8.527,-8.5387,-8.5479,-8.5539,-8.5634,-8.4879,-8.4878,-8.4877,-8.5076,-8.5,-8.5318,-8.5265,-8.5388,-8.5374,-8.5466,-8.5491,-8.538,-8.5516,-8.5578,-8.6046,-8.6156,-8.6201,-8.6302,-8.5678,-8.5679,-8.568,-8.5681,-8.5694,-8.5881,-8.5724,-8.5976,-8.5894,-8.6105,-8.6104,-8.6018,-8.6201,-8.5993,-8.6092,-8.5871,-8.6282,-8.6365,-8.57,-8.5696,-8.5694,-8.5692,-8.5691,-8.6138,-8.6214,-8.6235,-8.6405,-8.6545,-8.648,-8.6663,-8.6581,-8.6506,-8.6604,-8.6659,-8.6655,-8.6638,-8.6637,-8.6638,-8.664,-8.6641,-8.6643,-8.6644,-8.659,-8.6604,-8.6769,-8.685,-8.6917,-8.6996,-8.6986,-8.705,-8.71,-8.7026,-8.7026,-8.69,-8.6337,-8.6196,-8.6668,-8.6664,-8.6661,-8.6658,-8.6657,-8.7241,-8.708,-8.7335,-8.7403,-8.749,-8.7633,-8.7527,-8.7665,-8.7706,-8.7799,-8.7651,-8.7249,-8.7179,-8.713,-8.7013,-8.7668,-8.7668,-8.7668,-8.7668,-8.7614,-8.7571,-8.7811,-8.7925,-8.8028,-8.7957,-8.8245,-8.824,-8.821,-8.823,-8.8124,-8.7962,-8.7916,-8.7873,-8.7808,-8.7697,-8.8511,-8.8512,-8.8513,-8.8009,-8.7972,-8.8233,-8.8201,-8.8262,-8.8317,-8.8584,-8.8721,-8.8653,-8.8545,-8.8244,-8.8208,-8.7945,-8.7865,-8.7749,-8.765,-8.7445,0,0]},{"header":{"parameterUnit":"m.s-1","parameterCategory":1,"la1":30.2992,"la2":30.254,"lo1":-89.0895,"lo2":-89.0443,"dy":0.0025,"dx":0.0025,"nx":19,"ny":19,"refTime":"2026-04-08T03:00:00:Z","depth":0,"parameterNumber":3,"parameterNumberName":"V-component_of_WINDS"},"data":[0,0,0,0.0633,0.0634,0.0634,0.0633,0.0643,0.0644,0,0,0,0,0,0,0,0,0,0,0,0.0638,0.0638,0.0633,0.0634,0.0634,0.0633,0.0643,0.0644,0,0,0,0,0,0,0,0,0,0,0,0.0638,0.0638,0.0638,0.0634,0.0634,0.0633,0.0643,0.064,0,0,0,0,0,0,0,0,0,0,0.0639,0.0647,0.0638,0.0638,0.0634,0.0634,0.0633,0.064,0.064,0.0647,0,0.0653,0,0.0649,0.0645,0.0645,0,0,0,0.063,0.0646,0.0642,0.0638,0.0634,0.0634,0.0633,0.064,0.0641,0.0648,0.0653,0.0654,0.0649,0.0645,0.0645,0.0694,0.0695,0,0,0.063,0.064,0.0642,0.0643,0.0642,0.0633,0.0633,0.064,0.0647,0.0653,0.0654,0.0649,0.0645,0.0645,0.0694,0.0694,0,0,0,0.0633,0.0641,0.0636,0.0643,0.0642,0.0633,0.0633,0.0647,0.0645,0.0654,0.0649,0.0645,0.0645,0.0694,0.0694,0.0723,0,0,0,0.0632,0.0642,0.0636,0.0643,0.0642,0.0644,0.0639,0.0644,0.0645,0.0649,0.0645,0.0646,0.0693,0.0694,0.0721,0.0735,0,0,0,0.0636,0.0642,0.0644,0.0643,0.0643,0.0644,0.0642,0.0644,0.0642,0.0645,0.0646,0.0693,0.0694,0.072,0.0733,0.0752,0,0,0,0.0644,0.0668,0.0644,0.0671,0.0643,0.0661,0.0641,0.0654,0.066,0.0645,0.0693,0.0694,0.0719,0.0731,0.0751,0.0771,0.078,0,0,0.0681,0.0673,0.0688,0.0666,0.0691,0.066,0.069,0.0686,0.0677,0.069,0.0691,0.0722,0.0732,0.0752,0.0827,0.0834,0,0,0,0.0703,0.0714,0.0718,0.0725,0.0722,0.0722,0.0713,0.0712,0.0722,0.0685,0.0734,0.074,0.0751,0.076,0.0766,0.0776,0.0699,0.0698,0.0698,0.0769,0.0758,0.0782,0.0771,0.0777,0.0769,0.0773,0.0771,0.0756,0.0768,0.0772,0.0819,0.083,0.0834,0.0845,0.0781,0.0781,0.0781,0.0781,0.0823,0.0837,0.0819,0.0836,0.0825,0.0839,0.0833,0.0823,0.0836,0.0814,0.0823,0.0801,0.0843,0.0851,0.0783,0.0783,0.0783,0.0783,0.0782,0.0866,0.0871,0.0869,0.0879,0.0888,0.0876,0.0891,0.0879,0.0868,0.0878,0.0881,0.0881,0.088,0.088,0.088,0.0881,0.0881,0.0881,0.0881,0.091,0.0908,0.0921,0.0923,0.0926,0.093,0.0924,0.0928,0.093,0.092,0.092,0.0906,0.0849,0.0835,0.0883,0.0883,0.0883,0.0882,0.0882,0.097,0.0955,0.0975,0.0979,0.0982,0.0993,0.0979,0.0989,0.0991,0.0999,0.0983,0.0942,0.0934,0.0929,0.0917,0.0984,0.0984,0.0984,0.0984,0.1006,0.1001,0.102,0.1028,0.1035,0.1025,0.105,0.1047,0.1041,0.1042,0.1031,0.1015,0.101,0.1004,0.0998,0.0987,0.107,0.107,0.107,0.1043,0.1039,0.1062,0.1055,0.1057,0.106,0.1084,0.1096,0.1086,0.1074,0.1043,0.1039,0.1013,0.1005,0.0992,0.0981,0.0962,0,0]}]]